CUBESAT XI-IV (CO-57)

Last updated on Sun Jun 21 2026 00:03:20 GMT+0000 (Coordinated Universal Time)

1 27848U 03031J 26170.97745452 .00000169 00000+0 93103-4 0 9990 2 27848 98.6765 179.2116 0009219 188.6492 171.4529 14.23622052191779
UTC large
Height (km)
Speed (km/s)
/
Latitude / Longitude
Inclination (degrees)
Orbital Period (minutes)
Azimuth
Elevation
Range (km)
Doppler Factor

Next 0 passes for location: London (51.5072 / 0.1276)

No passes found over London.
CUBESAT XI-IV (CO-57)